Voltar ao catálogo

AMSC 1

AtivoComunicaçõesGEO
NORAD 23553·PAYLOAD·🇺🇸 United States

Lançado Apr 7, 1995 de Cape Canaveral Space Force Station

Loading…

TLE

AtualizadoSource: Space-Track

Época: Sep 14, 2026, 10:58 UTC

1 23553U 95019A   26257.45731964  .00000019  00000-0  00000-0 0  9993
2 23553  13.4136  15.8544 0016071 306.8515  60.5346  0.98908319114971

Acompanhe AMSC 1 em tempo real com AllMySat

Download on the App Store